Time,TemperatureF,DewpointF,PressureIn,WindDirection,WindDirectionDegrees,WindSpeedMPH,WindSpeedGustMPH,Humidity,HourlyPrecipIn,Conditions,Clouds,dailyrainin,SoftwareType,DateUTC
2013-08-19 00:01:00,67.8,60.4,30.15,North,0,0.0,-999.0,77,0.00,,,0.00,open2300 v1.10,2013-08-19 04:01:00,
2013-08-19 00:11:00,67.5,60.0,30.15,North,0,0.0,-999.0,77,0.00,,,0.00,open2300 v1.10,2013-08-19 04:11:00,
2013-08-19 00:21:00,67.3,60.2,30.15,North,0,0.0,-999.0,78,0.00,,,0.00,open2300 v1.10,2013-08-19 04:21:00,
2013-08-19 00:31:00,67.1,60.0,30.15,North,0,0.0,-999.0,78,0.00,,,0.00,open2300 v1.10,2013-08-19 04:31:00,
2013-08-19 00:41:00,66.9,59.9,30.15,North,0,0.0,-999.0,78,0.00,,,0.00,open2300 v1.10,2013-08-19 04:41:00,
2013-08-19 00:51:00,66.9,60.2,30.15,North,0,0.0,-999.0,79,0.00,,,0.00,open2300 v1.10,2013-08-19 04:51:00,
2013-08-19 01:11:00,66.4,60.1,30.15,North,0,0.0,-999.0,80,0.00,,,0.00,open2300 v1.10,2013-08-19 05:11:00,
2013-08-19 01:21:00,66.2,59.9,30.14,North,0,0.0,-999.0,80,0.00,,,0.00,open2300 v1.10,2013-08-19 05:21:00,
2013-08-19 01:31:00,65.8,59.5,30.14,North,0,0.0,-999.0,80,0.00,,,0.00,open2300 v1.10,2013-08-19 05:31:00,
2013-08-19 01:41:00,65.7,59.4,30.14,North,0,0.0,-999.0,80,0.00,,,0.00,open2300 v1.10,2013-08-19 05:41:00,
2013-08-19 01:51:00,65.5,59.2,30.13,North,0,0.0,-999.0,80,0.00,,,0.00,open2300 v1.10,2013-08-19 05:51:00,
2013-08-19 02:01:00,65.3,59.0,30.13,North,0,0.0,-999.0,80,0.00,,,0.00,open2300 v1.10,2013-08-19 06:01:00,
2013-08-19 02:11:00,64.9,59.0,30.14,North,0,0.0,-999.0,81,0.00,,,0.00,open2300 v1.10,2013-08-19 06:11:00,
2013-08-19 02:21:00,64.6,58.6,30.14,North,0,0.0,-999.0,81,0.00,,,0.00,open2300 v1.10,2013-08-19 06:21:00,
2013-08-19 02:31:00,63.9,57.9,30.13,North,0,0.0,-999.0,81,0.00,,,0.00,open2300 v1.10,2013-08-19 06:31:00,
2013-08-19 02:41:00,63.3,57.4,30.13,North,0,0.0,-999.0,81,0.00,,,0.00,open2300 v1.10,2013-08-19 06:41:00,
2013-08-19 02:51:00,62.8,57.2,30.13,North,0,0.0,-999.0,82,0.00,,,0.00,open2300 v1.10,2013-08-19 06:51:00,
2013-08-19 03:01:00,62.6,57.0,30.13,North,0,0.0,-999.0,82,0.00,,,0.00,open2300 v1.10,2013-08-19 07:01:00,
2013-08-19 03:11:00,62.4,56.8,30.13,North,0,0.0,-999.0,82,0.00,,,0.00,open2300 v1.10,2013-08-19 07:11:00,
2013-08-19 03:21:00,62.6,57.0,30.14,North,0,0.0,-999.0,82,0.00,,,0.00,open2300 v1.10,2013-08-19 07:21:00,
2013-08-19 03:31:00,63.0,57.7,30.13,North,0,0.0,-999.0,83,0.00,,,0.00,open2300 v1.10,2013-08-19 07:31:00,
2013-08-19 03:41:00,63.3,58.0,30.13,North,0,0.0,-999.0,83,0.00,,,0.00,open2300 v1.10,2013-08-19 07:41:00,
2013-08-19 03:51:00,63.3,58.0,30.13,North,0,0.0,-999.0,83,0.00,,,0.00,open2300 v1.10,2013-08-19 07:51:00,
2013-08-19 04:01:00,63.3,58.4,30.14,North,0,0.0,-999.0,84,0.00,,,0.00,open2300 v1.10,2013-08-19 08:01:00,
2013-08-19 04:11:00,63.3,58.4,30.13,North,0,0.0,-999.0,84,0.00,,,0.00,open2300 v1.10,2013-08-19 08:11:00,
2013-08-19 04:21:00,63.1,58.2,30.13,North,0,0.0,-999.0,84,0.00,,,0.00,open2300 v1.10,2013-08-19 08:21:00,
2013-08-19 04:31:00,63.0,58.0,30.13,North,0,0.0,-999.0,84,0.00,,,0.00,open2300 v1.10,2013-08-19 08:31:00,
2013-08-19 04:41:00,62.8,57.8,30.14,North,0,0.0,-999.0,84,0.00,,,0.00,open2300 v1.10,2013-08-19 08:41:00,
2013-08-19 04:51:00,62.4,57.5,30.13,North,0,0.0,-999.0,84,0.00,,,0.00,open2300 v1.10,2013-08-19 08:51:00,
2013-08-19 05:01:00,62.1,57.2,30.14,North,0,0.0,-999.0,84,0.00,,,0.00,open2300 v1.10,2013-08-19 09:01:00,
2013-08-19 05:11:00,61.9,57.3,30.14,North,0,0.0,-999.0,85,0.00,,,0.00,open2300 v1.10,2013-08-19 09:11:00,
2013-08-19 05:21:00,61.9,57.3,30.14,North,0,0.0,-999.0,85,0.00,,,0.00,open2300 v1.10,2013-08-19 09:21:00,
2013-08-19 05:31:00,61.9,57.3,30.14,North,0,0.0,-999.0,85,0.00,,,0.00,open2300 v1.10,2013-08-19 09:31:00,
2013-08-19 05:41:00,61.7,57.2,30.13,North,0,0.0,-999.0,85,0.00,,,0.00,open2300 v1.10,2013-08-19 09:41:00,
2013-08-19 05:51:00,61.5,57.0,30.13,North,0,0.0,-999.0,85,0.00,,,0.00,open2300 v1.10,2013-08-19 09:51:00,
2013-08-19 06:01:00,61.3,56.8,30.14,North,0,0.0,-999.0,85,0.00,,,0.00,open2300 v1.10,2013-08-19 10:01:00,
2013-08-19 06:11:00,61.0,56.5,30.14,North,0,0.0,-999.0,85,0.00,,,0.00,open2300 v1.10,2013-08-19 10:11:00,
2013-08-19 06:21:00,60.8,56.3,30.14,North,0,0.0,-999.0,85,0.00,,,0.00,open2300 v1.10,2013-08-19 10:21:00,
2013-08-19 06:31:00,60.6,56.1,30.14,North,0,0.0,-999.0,85,0.00,,,0.00,open2300 v1.10,2013-08-19 10:31:00,
2013-08-19 06:41:00,60.4,55.9,30.14,North,0,0.0,-999.0,85,0.00,,,0.00,open2300 v1.10,2013-08-19 10:41:00,
2013-08-19 06:51:00,60.1,55.6,30.14,North,0,0.0,-999.0,85,0.00,,,0.00,open2300 v1.10,2013-08-19 10:51:00,
2013-08-19 07:01:00,59.7,55.2,30.14,North,0,0.0,-999.0,85,0.00,,,0.00,open2300 v1.10,2013-08-19 11:01:00,
2013-08-19 07:11:00,59.5,55.0,30.15,North,0,0.0,-999.0,85,0.00,,,0.00,open2300 v1.10,2013-08-19 11:11:00,
2013-08-19 07:21:00,59.2,54.7,30.15,North,0,0.0,-999.0,85,0.00,,,0.00,open2300 v1.10,2013-08-19 11:21:00,
2013-08-19 07:31:00,58.8,54.3,30.15,North,0,0.0,-999.0,85,0.00,,,0.00,open2300 v1.10,2013-08-19 11:31:00,
2013-08-19 07:41:00,58.8,54.6,30.15,North,0,0.0,-999.0,86,0.00,,,0.00,open2300 v1.10,2013-08-19 11:41:00,
2013-08-19 07:51:00,58.8,54.6,30.15,North,0,0.0,-999.0,86,0.00,,,0.00,open2300 v1.10,2013-08-19 11:51:00,
2013-08-19 08:01:00,59.4,55.2,30.15,North,0,0.0,-999.0,86,0.00,,,0.00,open2300 v1.10,2013-08-19 12:01:00,
2013-08-19 08:11:00,59.5,55.4,30.15,North,0,0.0,-999.0,86,0.00,,,0.00,open2300 v1.10,2013-08-19 12:11:00,
2013-08-19 08:21:00,60.1,55.9,30.16,North,0,0.0,-999.0,86,0.00,,,0.00,open2300 v1.10,2013-08-19 12:21:00,
2013-08-19 08:31:00,60.6,56.4,30.16,North,0,0.0,-999.0,86,0.00,,,0.00,open2300 v1.10,2013-08-19 12:31:00,
2013-08-19 08:41:00,61.5,57.3,30.16,North,0,0.0,-999.0,86,0.00,,,0.00,open2300 v1.10,2013-08-19 12:41:00,
2013-08-19 08:51:00,62.4,58.5,30.16,North,0,0.0,-999.0,87,0.00,,,0.00,open2300 v1.10,2013-08-19 12:51:00,
2013-08-19 09:01:00,63.7,59.8,30.16,North,0,0.0,-999.0,87,0.00,,,0.00,open2300 v1.10,2013-08-19 13:01:00,
2013-08-19 09:11:00,64.9,61.3,30.17,North,0,0.0,-999.0,88,0.00,,,0.00,open2300 v1.10,2013-08-19 13:11:00,
2013-08-19 09:21:00,66.0,62.3,30.17,North,0,0.0,-999.0,88,0.00,,,0.00,open2300 v1.10,2013-08-19 13:21:00,
2013-08-19 09:31:00,67.1,63.4,30.17,North,0,0.0,-999.0,88,0.00,,,0.00,open2300 v1.10,2013-08-19 13:31:00,
2013-08-19 09:41:00,68.2,64.1,30.17,North,0,0.0,-999.0,87,0.00,,,0.00,open2300 v1.10,2013-08-19 13:41:00,
2013-08-19 09:51:00,68.7,64.3,30.17,North,0,0.0,-999.0,86,0.00,,,0.00,open2300 v1.10,2013-08-19 13:51:00,
2013-08-19 10:01:00,69.6,64.8,30.16,North,0,0.0,-999.0,85,0.00,,,0.00,open2300 v1.10,2013-08-19 14:01:00,
2013-08-19 10:11:00,70.5,65.1,30.16,North,0,0.0,-999.0,83,0.00,,,0.00,open2300 v1.10,2013-08-19 14:11:00,
2013-08-19 10:21:00,71.2,65.1,30.16,North,0,0.0,-999.0,81,0.00,,,0.00,open2300 v1.10,2013-08-19 14:21:00,
2013-08-19 10:31:00,72.3,65.8,30.16,North,0,0.0,-999.0,80,0.00,,,0.00,open2300 v1.10,2013-08-19 14:31:00,
2013-08-19 10:41:00,73.4,66.9,30.16,North,0,0.0,-999.0,80,0.00,,,0.00,open2300 v1.10,2013-08-19 14:41:00,
2013-08-19 10:51:00,73.9,65.2,30.17,North,0,0.0,-999.0,74,0.00,,,0.00,open2300 v1.10,2013-08-19 14:51:00,
2013-08-19 11:01:00,74.8,65.6,30.16,NNE,22,0.0,-999.0,73,0.00,,,0.00,open2300 v1.10,2013-08-19 15:01:00,
2013-08-19 11:11:00,75.6,65.1,30.16,NNE,22,0.0,-999.0,70,0.00,,,0.00,open2300 v1.10,2013-08-19 15:11:00,
2013-08-19 11:21:00,76.1,64.3,30.16,North,0,0.0,-999.0,67,0.00,,,0.00,open2300 v1.10,2013-08-19 15:21:00,
2013-08-19 11:31:00,76.6,64.4,30.16,North,0,0.0,-999.0,66,0.00,,,0.00,open2300 v1.10,2013-08-19 15:31:00,
2013-08-19 11:41:00,77.5,65.3,30.16,NNE,22,0.0,-999.0,66,0.00,,,0.00,open2300 v1.10,2013-08-19 15:41:00,
2013-08-19 11:51:00,78.1,64.9,30.16,NNE,22,0.0,-999.0,64,0.00,,,0.00,open2300 v1.10,2013-08-19 15:51:00,
2013-08-19 12:01:00,78.6,65.0,30.16,NNE,22,0.0,-999.0,63,0.00,,,0.00,open2300 v1.10,2013-08-19 16:01:00,
2013-08-19 12:11:00,79.2,65.1,30.15,NNE,22,0.0,-999.0,62,0.00,,,0.00,open2300 v1.10,2013-08-19 16:11:00,
2013-08-19 12:21:00,79.5,65.4,30.15,North,0,0.0,-999.0,62,0.00,,,0.00,open2300 v1.10,2013-08-19 16:21:00,
2013-08-19 12:31:00,80.1,65.4,30.15,North,0,0.0,-999.0,61,0.00,,,0.00,open2300 v1.10,2013-08-19 16:31:00,
2013-08-19 12:41:00,80.6,65.0,30.15,NNE,22,0.0,-999.0,59,0.00,,,0.00,open2300 v1.10,2013-08-19 16:41:00,
2013-08-19 12:51:00,80.4,64.8,30.15,East,90,0.0,-999.0,59,0.00,,,0.00,open2300 v1.10,2013-08-19 16:51:00,
2013-08-19 13:01:00,80.8,64.6,30.15,East,90,0.0,-999.0,58,0.00,,,0.00,open2300 v1.10,2013-08-19 17:01:00,
2013-08-19 13:11:00,81.1,64.9,30.15,WNW,292,0.0,-999.0,58,0.00,,,0.00,open2300 v1.10,2013-08-19 17:11:00,
2013-08-19 13:21:00,81.3,65.1,30.15,East,90,0.0,-999.0,58,0.00,,,0.00,open2300 v1.10,2013-08-19 17:21:00,
2013-08-19 13:31:00,82.2,65.9,30.14,NNE,22,0.0,-999.0,58,0.00,,,0.00,open2300 v1.10,2013-08-19 17:31:00,
2013-08-19 13:41:00,82.4,65.0,30.14,NNE,22,0.0,-999.0,56,0.00,,,0.00,open2300 v1.10,2013-08-19 17:41:00,
2013-08-19 13:51:00,82.0,64.7,30.14,NNE,22,0.0,-999.0,56,0.00,,,0.00,open2300 v1.10,2013-08-19 17:51:00,
2013-08-19 14:01:00,82.0,64.2,30.14,NNE,22,0.0,-999.0,55,0.00,,,0.00,open2300 v1.10,2013-08-19 18:01:00,
2013-08-19 14:11:00,81.5,64.2,30.14,NNE,22,0.0,-999.0,56,0.00,,,0.00,open2300 v1.10,2013-08-19 18:11:00,
2013-08-19 14:21:00,82.8,64.8,30.14,North,0,0.0,-999.0,55,0.00,,,0.00,open2300 v1.10,2013-08-19 18:21:00,
2013-08-19 14:31:00,82.9,65.0,30.13,WNW,292,0.0,-999.0,55,0.00,,,0.00,open2300 v1.10,2013-08-19 18:31:00,
2013-08-19 14:41:00,82.9,65.0,30.13,North,0,5.4,-999.0,55,0.00,,,0.00,open2300 v1.10,2013-08-19 18:41:00,
2013-08-19 14:51:00,83.5,65.6,30.13,NNE,22,0.0,-999.0,55,0.00,,,0.00,open2300 v1.10,2013-08-19 18:51:00,
2013-08-19 15:01:00,83.8,65.4,30.13,North,0,0.4,-999.0,54,0.00,,,0.00,open2300 v1.10,2013-08-19 19:01:00,
2013-08-19 15:11:00,84.4,65.9,30.13,NNE,22,2.9,-999.0,54,0.00,,,0.00,open2300 v1.10,2013-08-19 19:11:00,
2013-08-19 15:21:00,84.0,65.6,30.13,NNE,22,0.0,-999.0,54,0.00,,,0.00,open2300 v1.10,2013-08-19 19:21:00,
2013-08-19 15:31:00,84.4,65.9,30.13,NNE,22,2.0,-999.0,54,0.00,,,0.00,open2300 v1.10,2013-08-19 19:31:00,
2013-08-19 15:41:00,84.0,65.1,30.12,NNE,22,1.6,-999.0,53,0.00,,,0.00,open2300 v1.10,2013-08-19 19:41:00,
2013-08-19 15:51:00,83.7,65.2,30.12,NNE,22,0.0,-999.0,54,0.00,,,0.00,open2300 v1.10,2013-08-19 19:51:00,
2013-08-19 16:01:00,83.8,65.4,30.12,NNE,22,0.0,-999.0,54,0.00,,,0.00,open2300 v1.10,2013-08-19 20:01:00,
2013-08-19 16:11:00,84.2,65.8,30.12,NNE,22,0.0,-999.0,54,0.00,,,0.00,open2300 v1.10,2013-08-19 20:11:00,
2013-08-19 16:21:00,84.4,65.4,30.11,NNE,22,0.0,-999.0,53,0.00,,,0.00,open2300 v1.10,2013-08-19 20:21:00,
2013-08-19 16:31:00,84.7,66.2,30.11,NNE,22,0.0,-999.0,54,0.00,,,0.00,open2300 v1.10,2013-08-19 20:31:00,
2013-08-19 16:41:00,84.6,65.1,30.11,WNW,292,0.0,-999.0,52,0.00,,,0.00,open2300 v1.10,2013-08-19 20:41:00,
2013-08-19 16:51:00,84.0,65.1,30.11,North,0,0.0,-999.0,53,0.00,,,0.00,open2300 v1.10,2013-08-19 20:51:00,
2013-08-19 17:01:00,83.8,64.9,30.11,North,0,0.0,-999.0,53,0.00,,,0.00,open2300 v1.10,2013-08-19 21:01:00,
2013-08-19 17:11:00,84.0,65.1,30.11,NNE,22,0.0,-999.0,53,0.00,,,0.00,open2300 v1.10,2013-08-19 21:11:00,
2013-08-19 17:21:00,84.0,65.1,30.10,NNE,22,0.0,-999.0,53,0.00,,,0.00,open2300 v1.10,2013-08-19 21:21:00,
2013-08-19 17:31:00,83.8,65.4,30.10,NNE,22,0.0,-999.0,54,0.00,,,0.00,open2300 v1.10,2013-08-19 21:31:00,
2013-08-19 17:41:00,83.8,65.9,30.10,North,0,0.0,-999.0,55,0.00,,,0.00,open2300 v1.10,2013-08-19 21:41:00,
2013-08-19 17:51:00,84.0,65.6,30.10,NNE,22,0.0,-999.0,54,0.00,,,0.00,open2300 v1.10,2013-08-19 21:51:00,
2013-08-19 18:01:00,83.5,65.1,30.10,NNE,22,0.0,-999.0,54,0.00,,,0.00,open2300 v1.10,2013-08-19 22:01:00,
2013-08-19 18:11:00,83.1,65.2,30.10,NNE,22,0.0,-999.0,55,0.00,,,0.00,open2300 v1.10,2013-08-19 22:11:00,
2013-08-19 18:21:00,82.6,64.7,30.10,NNE,22,0.0,-999.0,55,0.00,,,0.00,open2300 v1.10,2013-08-19 22:21:00,
2013-08-19 18:31:00,82.2,64.8,30.09,NNE,22,0.0,-999.0,56,0.00,,,0.00,open2300 v1.10,2013-08-19 22:31:00,
2013-08-19 18:41:00,82.0,65.2,30.10,NNE,22,0.0,-999.0,57,0.00,,,0.00,open2300 v1.10,2013-08-19 22:41:00,
2013-08-19 18:51:00,81.5,64.2,30.09,NNE,22,0.0,-999.0,56,0.00,,,0.00,open2300 v1.10,2013-08-19 22:51:00,
2013-08-19 19:01:00,81.3,64.6,30.09,NNE,22,0.0,-999.0,57,0.00,,,0.00,open2300 v1.10,2013-08-19 23:01:00,
2013-08-19 19:11:00,81.1,64.9,30.09,NNE,22,0.0,-999.0,58,0.00,,,0.00,open2300 v1.10,2013-08-19 23:11:00,
2013-08-19 19:21:00,80.8,65.1,30.09,NNE,22,0.0,-999.0,59,0.00,,,0.00,open2300 v1.10,2013-08-19 23:21:00,
2013-08-19 19:31:00,80.4,65.3,30.08,NNE,22,0.0,-999.0,60,0.00,,,0.00,open2300 v1.10,2013-08-19 23:31:00,
2013-08-19 19:41:00,80.1,65.4,30.08,NNE,22,0.0,-999.0,61,0.00,,,0.00,open2300 v1.10,2013-08-19 23:41:00,
2013-08-19 19:51:00,79.5,64.9,30.08,NNE,22,0.0,-999.0,61,0.00,,,0.00,open2300 v1.10,2013-08-19 23:51:00,
2013-08-19 20:01:00,79.3,65.2,30.08,NNE,22,0.0,-999.0,62,0.00,,,0.00,open2300 v1.10,2013-08-20 00:01:00,
2013-08-19 20:11:00,78.8,65.2,30.08,NNE,22,0.0,-999.0,63,0.00,,,0.00,open2300 v1.10,2013-08-20 00:11:00,
2013-08-19 20:21:00,78.3,64.6,30.08,NNE,22,0.0,-999.0,63,0.00,,,0.00,open2300 v1.10,2013-08-20 00:21:00,
2013-08-19 20:31:00,77.7,64.5,30.09,NNE,22,0.0,-999.0,64,0.00,,,0.00,open2300 v1.10,2013-08-20 00:31:00,
2013-08-19 20:41:00,76.8,64.1,30.09,NNE,22,0.0,-999.0,65,0.00,,,0.00,open2300 v1.10,2013-08-20 00:41:00,
2013-08-19 20:51:00,76.3,63.6,30.08,NNE,22,0.0,-999.0,65,0.00,,,0.00,open2300 v1.10,2013-08-20 00:51:00,
2013-08-19 21:01:00,75.9,63.7,30.08,NNE,22,0.0,-999.0,66,0.00,,,0.00,open2300 v1.10,2013-08-20 01:01:00,
2013-08-19 21:11:00,75.7,64.0,30.08,NNE,22,0.0,-999.0,67,0.00,,,0.00,open2300 v1.10,2013-08-20 01:11:00,
2013-08-19 21:21:00,75.4,63.6,30.08,NNE,22,0.0,-999.0,67,0.00,,,0.00,open2300 v1.10,2013-08-20 01:21:00,
2013-08-19 21:31:00,74.8,63.1,30.09,NNE,22,0.0,-999.0,67,0.00,,,0.00,open2300 v1.10,2013-08-20 01:31:00,
2013-08-19 21:41:00,74.1,62.5,30.09,NNE,22,0.0,-999.0,67,0.00,,,0.00,open2300 v1.10,2013-08-20 01:41:00,
2013-08-19 21:51:00,73.6,62.4,30.10,NNE,22,0.0,-999.0,68,0.00,,,0.00,open2300 v1.10,2013-08-20 01:51:00,
2013-08-19 22:01:00,73.2,62.5,30.10,NNE,22,0.0,-999.0,69,0.00,,,0.00,open2300 v1.10,2013-08-20 02:01:00,
2013-08-19 22:11:00,73.0,62.3,30.10,NNE,22,0.0,-999.0,69,0.00,,,0.00,open2300 v1.10,2013-08-20 02:11:00,
2013-08-19 22:21:00,72.1,61.4,30.10,NNE,22,0.0,-999.0,69,0.00,,,0.00,open2300 v1.10,2013-08-20 02:21:00,
2013-08-19 22:31:00,71.8,61.5,30.10,NNE,22,0.0,-999.0,70,0.00,,,0.00,open2300 v1.10,2013-08-20 02:31:00,
2013-08-19 22:41:00,71.2,61.4,30.11,NNE,22,0.0,-999.0,71,0.00,,,0.00,open2300 v1.10,2013-08-20 02:41:00,
2013-08-19 22:51:00,70.7,61.2,30.11,NNE,22,0.0,-999.0,72,0.00,,,0.00,open2300 v1.10,2013-08-20 02:51:00,
2013-08-19 23:01:00,70.3,60.8,30.11,NNE,22,0.0,-999.0,72,0.00,,,0.00,open2300 v1.10,2013-08-20 03:01:00,
2013-08-19 23:11:00,70.2,61.0,30.11,NNE,22,0.0,-999.0,73,0.00,,,0.00,open2300 v1.10,2013-08-20 03:11:00,
2013-08-19 23:21:00,69.6,60.9,30.11,NNE,22,0.0,-999.0,74,0.00,,,0.00,open2300 v1.10,2013-08-20 03:21:00,
2013-08-19 23:31:00,68.9,60.2,30.11,NNE,22,0.0,-999.0,74,0.00,,,0.00,open2300 v1.10,2013-08-20 03:31:00,
2013-08-19 23:41:00,68.5,60.3,30.12,NNE,22,0.0,-999.0,75,0.00,,,0.00,open2300 v1.10,2013-08-20 03:41:00,
2013-08-19 23:51:00,68.2,60.0,30.12,NNE,22,0.0,-999.0,75,0.00,,,0.00,open2300 v1.10,2013-08-20 03:51:00,